| time (UTC) | temp F | wind direction | speed MPH | gust MPH | rain 1hr in | rain 24hr in | rain mn in | humidity % | barometer mb |
| 20260903123043 | 64 | 260 | 0.0 | 0.0 | 0.00 | 0.00 | 0.00 | 90 | 1013.1 |
| 20260903121542 | 64 | 198 | 0.0 | 0.0 | 0.00 | 0.00 | 0.00 | 89 | 1013.2 |
| 20260903120044 | 64 | 198 | 0.0 | 0.0 | 0.00 | 0.00 | 0.00 | 89 | 1013.4 |
| 20260903114545 | 64 | 198 | 0.0 | 0.0 | 0.00 | 0.00 | 0.00 | 90 | 1013.3 |
| 20260903113041 | 63 | 198 | 0.0 | 0.0 | 0.00 | 0.00 | 0.00 | 90 | 1013.3 |
| 20260903111543 | 63 | 198 | 0.0 | 1.0 | 0.00 | 0.00 | 0.00 | 89 | 1013.4 |
| 20260903110046 | 63 | 198 | 0.0 | 0.0 | 0.00 | 0.00 | 0.00 | 89 | 1013.4 |
| 20260903104543 | 63 | 198 | 0.0 | 0.0 | 0.00 | 0.00 | 0.00 | 89 | 1013.4 |
| 20260903103046 | 63 | 198 | 0.0 | 0.0 | 0.00 | 0.00 | 0.00 | 89 | 1013.3 |
| 20260903101541 | 63 | 198 | 0.0 | 1.0 | 0.00 | 0.00 | 0.00 | 89 | 1013.2 |
| 20260903100038 | 63 | 198 | 0.0 | 0.0 | 0.00 | 0.00 | 0.00 | 89 | 1013.1 |
| 20260903094537 | 63 | 198 | 0.0 | 0.0 | 0.00 | 0.00 | 0.00 | 89 | 1013.1 |
| 20260903093038 | 63 | 198 | 0.0 | 0.0 | 0.00 | 0.00 | 0.00 | 89 | 1013.0 |
| 20260903091534 | 63 | 198 | 0.0 | 2.0 | 0.00 | 0.00 | 0.00 | 89 | 1013.2 |
| 20260903090034 | 63 | 134 | 0.0 | 0.0 | 0.00 | 0.00 | 0.00 | 89 | 1013.2 |
| 20260903084532 | 64 | 134 | 0.0 | 0.0 | 0.00 | 0.00 | 0.00 | 88 | 1013.3 |
| 20260903083036 | 63 | 134 | 0.0 | 0.0 | 0.00 | 0.00 | 0.00 | 88 | 1013.3 |
| 20260903081533 | 63 | 134 | 0.0 | 0.0 | 0.00 | 0.00 | 0.00 | 88 | 1013.5 |
| 20260903080029 | 64 | 134 | 0.0 | 0.0 | 0.00 | 0.00 | 0.00 | 88 | 1013.8 |
| 20260903074528 | 64 | 134 | 0.0 | 0.0 | 0.00 | 0.00 | 0.00 | 87 | 1013.7 |
| 20260903073026 | 64 | 134 | 0.0 | 0.0 | 0.00 | 0.00 | 0.00 | 87 | 1013.5 |
| 20260903071525 | 64 | 134 | 0.0 | 1.0 | 0.00 | 0.00 | 0.00 | 86 | 1013.7 |
| 20260903070023 | 64 | 134 | 0.0 | 0.0 | 0.00 | 0.00 | 0.00 | 86 | 1014.0 |
| 20260903064521 | 64 | 134 | 0.0 | 0.0 | 0.00 | 0.00 | 0.00 | 85 | 1013.8 |
| 20260903063040 | 65 | 134 | 0.0 | 0.0 | 0.00 | 0.00 | 0.00 | 84 | 1014.0 |
| 20260903061520 | 65 | 134 | 0.0 | 1.0 | 0.00 | 0.00 | 0.00 | 83 | 1013.9 |
| 20260903060016 | 65 | 134 | 0.0 | 1.0 | 0.00 | 0.00 | 0.00 | 83 | 1014.0 |
| 20260903054516 | 66 | 134 | 0.0 | 4.0 | 0.00 | 0.00 | 0.00 | 81 | 1014.2 |
| 20260903053011 | 66 | 134 | 1.0 | 3.0 | 0.00 | 0.00 | 0.00 | 80 | 1014.7 |
| 20260903051510 | 66 | 133 | 1.0 | 3.0 | 0.00 | 0.00 | 0.00 | 78 | 1014.7 |
| 20260903050007 | 67 | 140 | 1.0 | 5.0 | 0.00 | 0.00 | 0.00 | 76 | 1014.7 |
| 20260903044506 | 67 | 134 | 0.0 | 3.0 | 0.00 | 0.00 | 0.00 | 76 | 1014.4 |
| 20260903043005 | 67 | 133 | 1.0 | 4.0 | 0.00 | 0.00 | 0.00 | 76 | 1014.7 |
| 20260903041506 | 67 | 136 | 0.0 | 4.0 | 0.00 | 0.00 | 0.00 | 75 | 1014.5 |
| 20260903040003 | 67 | 117 | 0.0 | 3.0 | 0.00 | 0.00 | 0.00 | 75 | 1014.6 |
| 20260903034502 | 67 | 138 | 0.0 | 4.0 | 0.00 | 0.00 | 0.00 | 75 | 1014.5 |
| 20260903033001 | 67 | 123 | 2.0 | 6.0 | 0.00 | 0.00 | 0.00 | 76 | 1014.5 |
| 20260903031559 | 67 | 128 | 2.0 | 4.0 | 0.00 | 0.00 | 0.00 | 76 | 1015.1 |
| 20260903030057 | 67 | 134 | 1.0 | 4.0 | 0.00 | 0.00 | 0.00 | 77 | 1015.5 |
| 20260903024557 | 67 | 121 | 1.0 | 4.0 | 0.00 | 0.00 | 0.00 | 78 | 1015.5 |
| 20260903023055 | 67 | 133 | 1.0 | 3.0 | 0.00 | 0.00 | 0.00 | 78 | 1016.0 |
| 20260903021555 | 67 | 130 | 1.0 | 5.0 | 0.00 | 0.00 | 0.00 | 78 | 1016.2 |
| 20260903020054 | 67 | 148 | 0.0 | 2.0 | 0.00 | 0.00 | 0.00 | 78 | 1016.2 |
| 20260903014554 | 68 | 140 | 0.0 | 2.0 | 0.00 | 0.00 | 0.00 | 77 | 1016.5 |
| 20260903013054 | 68 | 130 | 2.0 | 5.0 | 0.00 | 0.00 | 0.00 | 77 | 1016.7 |
| 20260903011604 | 68 | 141 | 3.0 | 7.0 | 0.00 | 0.00 | 0.00 | 76 | 1016.6 |
| 20260903010052 | 68 | 138 | 0.0 | 6.0 | 0.00 | 0.00 | 0.00 | 76 | 1016.5 |
| 20260903004551 | 68 | 138 | 3.0 | 7.0 | 0.00 | 0.00 | 0.00 | 77 | 1016.4 |
| 20260903003051 | 68 | 117 | 3.0 | 8.0 | 0.00 | 0.00 | 0.00 | 77 | 1016.4 |
| 20260903001551 | 68 | 142 | 1.0 | 7.0 | 0.00 | 0.00 | 0.00 | 78 | 1016.1 |
| 20260903000050 | 68 | 142 | 1.0 | 6.0 | 0.00 | 0.00 | 0.00 | 77 | 1016.2 |
| 20260902234551 | 68 | 137 | 2.0 | 6.0 | 0.00 | 0.00 | 0.00 | 77 | 1016.0 |
| 20260902233055 | 68 | 142 | 2.0 | 6.0 | 0.00 | 0.00 | 0.00 | 77 | 1015.7 |
| 20260902231557 | 68 | 135 | 1.0 | 6.0 | 0.00 | 0.00 | 0.00 | 77 | 1015.9 |
| 20260902230045 | 68 | 133 | 2.0 | 5.0 | 0.00 | 0.00 | 0.00 | 77 | 1016.5 |
| 20260902224552 | 68 | 140 | 2.0 | 6.0 | 0.00 | 0.00 | 0.00 | 77 | 1017.0 |
| 20260902223040 | 68 | 132 | 1.0 | 3.0 | 0.00 | 0.00 | 0.00 | 77 | 1017.8 |
| 20260902221547 | 68 | 127 | 0.0 | 4.0 | 0.00 | 0.00 | 0.00 | 77 | 1018.1 |
| 20260902220037 | 68 | 127 | 1.0 | 6.0 | 0.00 | 0.00 | 0.00 | 78 | 1018.1 |
| 20260902214538 | 68 | 132 | 2.0 | 9.0 | 0.00 | 0.00 | 0.00 | 78 | 1018.1 |
| 20260902213044 | 68 | 123 | 1.0 | 5.0 | 0.00 | 0.00 | 0.00 | 78 | 1018.3 |
| 20260902211546 | 68 | 116 | 1.0 | 5.0 | 0.00 | 0.00 | 0.00 | 78 | 1018.1 |
| 20260902210037 | 69 | 124 | 2.0 | 4.0 | 0.00 | 0.00 | 0.00 | 78 | 1018.2 |
| 20260902204536 | 69 | 123 | 2.0 | 6.0 | 0.00 | 0.00 | 0.00 | 77 | 1017.8 |
| 20260902203035 | 69 | 128 | 1.0 | 8.0 | 0.00 | 0.00 | 0.00 | 77 | 1018.2 |
| 20260902201538 | 69 | 123 | 2.0 | 7.0 | 0.00 | 0.00 | 0.00 | 76 | 1018.4 |
| 20260902200035 | 70 | 119 | 2.0 | 5.0 | 0.00 | 0.00 | 0.00 | 76 | 1018.1 |
| 20260902194534 | 70 | 128 | 3.0 | 6.0 | 0.00 | 0.00 | 0.00 | 76 | 1018.3 |
| 20260902193032 | 69 | 120 | 2.0 | 4.0 | 0.00 | 0.00 | 0.00 | 76 | 1018.5 |
| 20260902191536 | 70 | 119 | 4.0 | 7.0 | 0.00 | 0.00 | 0.00 | 75 | 1018.8 |
| 20260902190032 | 70 | 129 | 2.0 | 5.0 | 0.00 | 0.00 | 0.00 | 73 | 1018.8 |
| 20260902184530 | 70 | 143 | 2.0 | 8.0 | 0.00 | 0.00 | 0.00 | 73 | 1018.6 |
| 20260902183029 | 70 | 144 | 1.0 | 6.0 | 0.00 | 0.00 | 0.00 | 74 | 1018.7 |
| 20260902181529 | 69 | 125 | 0.0 | 7.0 | 0.00 | 0.00 | 0.00 | 74 | 1019.0 |
| 20260902180028 | 70 | 128 | 1.0 | 5.0 | 0.00 | 0.00 | 0.00 | 72 | 1019.0 |
| 20260902174529 | 70 | 130 | 2.0 | 6.0 | 0.00 | 0.00 | 0.00 | 72 | 1018.9 |
| 20260902173027 | 70 | 111 | 2.0 | 7.0 | 0.00 | 0.00 | 0.00 | 71 | 1019.0 |
| 20260902171527 | 70 | 121 | 2.0 | 7.0 | 0.00 | 0.00 | 0.00 | 70 | 1018.8 |
| 20260902170024 | 70 | 123 | 3.0 | 7.0 | 0.00 | 0.00 | 0.00 | 70 | 1018.9 |
| 20260902164526 | 69 | 131 | 3.0 | 5.0 | 0.00 | 0.00 | 0.00 | 69 | 1019.2 |
| 20260902163023 | 69 | 118 | 3.0 | 7.0 | 0.00 | 0.00 | 0.00 | 70 | 1019.3 |
| 20260902161522 | 69 | 134 | 0.0 | 5.0 | 0.00 | 0.00 | 0.00 | 72 | 1019.5 |
| 20260902160018 | 68 | 140 | 1.0 | 4.0 | 0.00 | 0.00 | 0.00 | 74 | 1019.5 |
| 20260902154526 | 68 | 129 | 2.0 | 7.0 | 0.00 | 0.00 | 0.00 | 73 | 1019.6 |
| 20260902153016 | 67 | 134 | 1.0 | 5.0 | 0.00 | 0.00 | 0.00 | 73 | 1019.9 |
| 20260902151515 | 67 | 146 | 1.0 | 3.0 | 0.00 | 0.00 | 0.00 | 73 | 1020.1 |
| 20260902150013 | 67 | 157 | 1.0 | 5.0 | 0.00 | 0.00 | 0.00 | 73 | 1020.0 |
| 20260902144527 | 67 | 119 | 2.0 | 5.0 | 0.00 | 0.00 | 0.00 | 73 | 1020.1 |
| 20260902143016 | 67 | 120 | 1.0 | 3.0 | 0.00 | 0.00 | 0.00 | 73 | 1020.2 |
| 20260902141519 | 67 | 128 | 1.0 | 5.0 | 0.00 | 0.00 | 0.00 | 73 | 1020.3 |
| 20260902140016 | 67 | 128 | 0.0 | 4.0 | 0.00 | 0.00 | 0.00 | 73 | 1019.9 |
| 20260902134513 | 67 | 128 | 1.0 | 2.0 | 0.00 | 0.00 | 0.00 | 75 | 1019.8 |
| 20260902133003 | 66 | 130 | 0.0 | 4.0 | 0.00 | 0.00 | 0.00 | 74 | 1019.7 |
| 20260902131504 | 66 | 130 | 2.0 | 5.0 | 0.00 | 0.00 | 0.00 | 74 | 1019.4 |
| 20260902130001 | 66 | 148 | 0.0 | 3.0 | 0.00 | 0.03 | 0.00 | 76 | 1019.5 |
| 20260902124607 | 66 | 132 | 0.0 | 4.0 | 0.00 | 0.03 | 0.00 | 76 | 1019.3 |